Weather History for K8D3 - November, 2011

Change the Weather History Date:

Friday, November 4, 2011

  Actual Average Record
Temperature  
Mean Temperature 46 °F 37 °F  
Max Temperature 57 °F 47 °F 74 °F (1975)
Min Temperature 34 °F 28 °F -2 °F (1951)
Degree Days  
Heating Degree Days 19 28  
Month to date heating degree days 87 108  
Since 1 July heating degree days 736 935  
Cooling Degree Days 0 0  
Month to date cooling degree days 0 0  
Year to date cooling degree days 642 527  
Moisture  
Dew Point 20 °F    
Average Humidity 38    
Maximum Humidity 55    
Minimum Humidity 20    
Precipitation  
Precipitation 0.00 in 0.03 in 0.46 in (1988)
Month to date precipitation 0.00 0.12  
Year to date precipitation 20.97 21.48  
Snow  
Snow 0.00 in - - ()
Month to date snowfall 0.0  
Since 1 July snowfall 0.0  
Snow Depth 0.00 in    
Sea Level Pressure  
Sea Level Pressure 29.97 in    
Wind  
Wind Speed 19 mph (South)    
Max Wind Speed 36 mph    
Max Gust Speed 43 mph    
T = Trace of Precipitation, MM = Missing Value Source: NWS Daily Summary

Daily Weather History Graph

Daily Weather History Graph

Search for Another Location

Airport or City:

Trip Planner

Search our weather history database for the weather conditions in past years. The results will help you decide how hot, cold, wet, or windy it might be!

Date:

Astronomy

Nov. 04, 2011 Rise Set
Actual Time 8:11 AM CDT 6:10 PM CDT
Civil Twilight 7:40 AM CDT 6:41 PM CDT
Nautical Twilight 7:05 AM CDT 7:17 PM CDT
Astronomical Twilight 6:30 AM CDT 7:51 PM CDT
Moon 3:17 PM CDT (11/4) 2:08 AM CDT (11/4)
Length of Visible Light 11h 01m
Length of Day
9h 59m
Waxing Gibbous, 69% of the Moon is Illuminated
Nov 4
Waxing Gibbous
Nov 10
Full
Nov 18
Last Quarter
Nov 25
New
Dec 2
First Quarter

Hourly Weather History & Observations

Time (CDT) Temp. Windchill Dew Point Humidity Pressure Visibility Wind Dir Wind Speed Gust Speed Precip Events Conditions
12:56 AM 37.9 °F 30.0 °F 18.0 °F 45% 30.11 in - South 12.7 mph - N/A   Unknown
1:56 AM 41.0 °F 32.8 °F 17.1 °F 38% 30.12 in - SSW 16.1 mph 21.9 mph N/A   Unknown
2:56 AM 39.9 °F 31.8 °F 17.1 °F 40% 30.11 in - South 15.0 mph - N/A   Unknown
3:56 AM 37.9 °F 29.6 °F 18.0 °F 45% 30.08 in - South 13.8 mph - N/A   Unknown
4:56 AM 37.0 °F 27.4 °F 18.0 °F 46% 30.07 in - SSW 17.3 mph - N/A   Unknown
5:56 AM 37.0 °F 28.1 °F 18.0 °F 46% 30.08 in - SSW 15.0 mph - N/A   Unknown
6:56 AM 35.1 °F 25.5 °F 18.0 °F 50% 30.07 in - South 15.0 mph - N/A   Unknown
7:56 AM 35.1 °F 24.8 °F 18.0 °F 50% 30.06 in - South 17.3 mph - N/A   Unknown
8:56 AM 36.0 °F 26.0 °F 18.0 °F 48% 30.06 in - South 17.3 mph - N/A   Unknown
9:56 AM 39.0 °F 30.6 °F 21.0 °F 49% 30.05 in - South 15.0 mph - N/A   Unknown
10:56 AM 45.0 °F 36.2 °F 21.9 °F 40% 30.02 in - South 24.2 mph 29.9 mph N/A   Unknown
11:56 AM 51.1 °F - 19.9 °F 29% 29.99 in - SSW 27.6 mph 38.0 mph N/A   Unknown
12:56 PM 53.1 °F - 19.9 °F 27% 29.97 in - SSW 27.6 mph 39.1 mph N/A   Unknown
1:56 PM 54.0 °F - 18.0 °F 24% 29.93 in - South 33.4 mph 41.4 mph N/A   Unknown
2:56 PM 55.0 °F - 17.1 °F 23% 29.90 in - South 26.5 mph 38.0 mph N/A   Unknown
3:56 PM 55.9 °F - 15.1 °F 20% 29.88 in - South 29.9 mph 42.6 mph N/A   Unknown
4:56 PM 55.0 °F - 17.1 °F 23% 29.88 in - South 21.9 mph 33.4 mph N/A   Unknown
5:56 PM 52.0 °F - 19.9 °F 28% 29.87 in - South 15.0 mph 24.2 mph N/A   Unknown
6:56 PM 48.9 °F - 21.9 °F 35% 29.87 in - South 18.4 mph 27.6 mph N/A   Unknown
7:56 PM 46.0 °F 39.3 °F 23.0 °F 40% 29.87 in - South 16.1 mph 24.2 mph N/A   Unknown
8:56 PM 44.1 °F 37.4 °F 23.0 °F 43% 29.87 in - South 13.8 mph - N/A   Unknown
9:56 PM 43.0 °F 34.8 °F 25.0 °F 49% 29.86 in - South 18.4 mph - N/A   Unknown
10:56 PM 43.0 °F 35.7 °F 26.1 °F 51% 29.84 in - South 15.0 mph 24.2 mph N/A   Unknown
11:56 PM 41.0 °F 33.1 °F 27.0 °F 57% 29.82 in - South 15.0 mph - N/A   Unknown